SNAP-3 ALICE

Satellite information

Favourite Embed

Satellite Type and Status

PAYLOADIN ORBIT

Key statistics

Satellite SNAP-3 ALICE at a glance.

Uptime

3621

Days in orbit

Revolutions

≈ 15.2

Per day

Orbit

LEO

Low Earth Orbit

Inclination

64.8

Latest

Satellite identification and parameters

Extended collection of information and parameters for SNAP-3 ALICE.

Object identification

Identified? True

Debris? False

Object name: SNAP-3 ALICE

International designator: 2015-058G

Object number (NORAD): 40970

Object ID (CCSDS): 40970

Country: UNITED STATES OF AMERICA (US)

Current information (Y/N): Y

RCS size: MEDIUM

Orbital parameters

Period: 94.427 minutes

Inclination: 64.7666 deg

SMA: 6868.969 km

Apoapsis: 536.062 km

Periapsis: 445.607 km

RAAN: 337.6346 deg

Eccentricy: 0.00658432

Argument of periapsis: 166.5141 deg

Mean anomaly: 193.7768 deg

Mean motion: 15.24984453 rev/day

Mean motion (dot): 0.00043254 rev/day2

B* drag term: 0.0016205011 1/REarth

Two-line elements (TLE)

Creation date: Sept. 5, 2025, 7:38 p.m.

Reference frame: TEME

Reference center: EARTH

Epoch: Sept. 5, 2025, 2:52 p.m. UTC

TLE line 0: 0 SNAP-3 ALICE

TLE line 1: 1 40970U 15058G 25248.61978661 .00043254 00000-0 16205-2 0 9998

TLE line 2: 2 40970 64.7666 337.6346 0065843 166.5141 193.7768 15.24984453 73072

Live tracking on map

Real-time ground track for satellite SNAP-3 ALICE.

In-orbit conjunctions

There are no conjunctions computed for SNAP-3 ALICE, at the moment. Check back to stay up to date, as we update our databases every day.

Go to all conjunctions

Associated space launch

Classified payload for the U.S. National Reconnaissance Office.

SNAP-3 ALICE was lifted into orbit during the mission ‘Atlas V 401 | NROL-55 (Multipayload mission)’, on board a Atlas V 401 space rocket.

The launch took place on Oct. 8, 2015, 12:49 p.m. from Space Launch Complex 3E.

For more information about the launch, click the button.

Launch to space Atlas V 401 | NROL-55 (Multipayload mission)
Atlas V 401 | NROL-55 (Multipayload mission)

Agency: N/A

Status: Launch Successful

Launch date: Oct. 8, 2015, 12:49 p.m. UTC

Rocket: Atlas V 401

Launch pad: Space Launch Complex 3E

Location: Vandenberg SFB, CA, USA

...

Latest news about this satellite

There are no fresh news available about this satellite. Check back as we update our databases every day.


Newsletter sign-up

Weekly statistics, charts and insights to help you stay on top of the space industry.